GW1849 Weather Reports


time (UTC)temp
C
wind
direction
speed
KPH
gust
KPH
rain 1hr
cm
rain 24hr
cm
rain mn
cm
humidity
%
barometer
mb
20260503054606 10 215 0.0 0.0 0.00 0.00 0.00 76 1016.0
20260503053334 10 198 0.0 0.0 0.00 0.00 0.00 78 1016.2
20260503052310 10 201 0.0 0.0 0.00 0.00 0.00 80 1016.3
20260503051246 10 200 0.0 0.0 0.00 0.00 0.00 78 1016.4
20260503050238 11 177 0.0 0.0 0.00 0.00 0.00 76 1016.3
20260503045231 11 204 0.0 0.0 0.00 0.00 0.00 72 1016.1
20260503044222 11 236 0.0 0.0 0.00 0.00 0.00 71 1016.3
20260503043038 10 221 0.0 0.0 0.00 0.00 0.00 75 1016.3
20260503041959 11 179 1.6 3.2 0.00 0.00 0.00 74 1016.2
20260503040902 11 202 0.0 0.0 0.00 0.00 0.00 77 1015.9
20260503035734 11 202 0.0 0.0 0.00 0.00 0.00 76 1016.2
20260503034726 11 216 0.0 0.0 0.00 0.00 0.00 75 1015.9
20260503033702 11 204 0.0 0.0 0.00 0.00 0.00 72 1016.3
20260503032622 11 203 0.0 0.0 0.00 0.00 0.00 73 1016.2
20260503031606 11 202 0.0 0.0 0.00 0.00 0.00 72 1016.0
20260503030518 12 172 0.0 0.0 0.00 0.00 0.00 70 1015.9
20260503025546 12 204 0.0 0.0 0.00 0.00 0.00 63 1015.6
20260503024358 12 217 0.0 0.0 0.00 0.00 0.00 62 1015.4
20260503023318 12 267 6.4 11.3 0.00 0.00 0.00 59 1015.2
20260503022238 12 256 3.2 8.0 0.00 0.00 0.00 62 1015.1
20260503021214 12 267 3.2 3.2 0.00 0.00 0.00 63 1015.2
20260503020106 12 274 1.6 3.2 0.00 0.00 0.00 62 1014.9
20260503015146 13 228 0.0 0.0 0.00 0.00 0.00 59 1014.9
20260503014138 13 269 1.6 3.2 0.00 0.00 0.00 59 1015.0
20260503012950 13 273 1.6 3.2 0.00 0.00 0.00 61 1014.9
20260503011910 13 251 0.0 0.0 0.00 0.00 0.00 64 1015.1
20260503010922 13 251 0.0 3.2 0.00 0.00 0.00 66 1015.4
20260503005702 12 225 0.0 0.0 0.00 0.00 0.00 73 1015.2
20260503004654 11 211 0.0 0.0 0.00 0.00 0.00 77 1014.8
20260503003630 12 217 0.0 0.0 0.00 0.00 0.00 76 1015.1
20260503002534 13 129 0.0 3.2 0.00 0.00 0.00 66 1015.0
20260503001526 17 190 0.0 0.0 0.00 0.00 0.00 40 1014.6
20260503000518 17 219 0.0 0.0 0.00 0.00 0.00 39 1014.2
20260502235438 17 152 0.0 0.0 0.00 0.00 0.00 37 1014.0
20260502234358 17 168 0.0 0.0 0.00 0.00 0.00 36 1014.2
20260502233334 18 183 0.0 0.0 0.00 0.00 0.00 35 1013.9
20260502232326 18 167 0.0 0.0 0.00 0.00 0.00 33 1014.1
20260502231302 19 174 0.0 0.0 0.00 0.00 0.00 32 1013.9
20260502230206 19 201 3.2 8.0 0.00 0.00 0.00 32 1014.3
20260502225142 19 159 4.8 8.0 0.00 0.00 0.00 32 1014.0
20260502224226 18 176 0.0 0.0 0.00 0.00 0.00 33 1014.2
20260502223006 19 171 1.6 3.2 0.00 0.00 0.00 33 1014.3
20260502221926 19 195 4.8 8.0 0.00 0.00 0.00 32 1014.5
20260502220902 18 95 3.2 8.0 0.00 0.00 0.00 34 1014.6
20260502215838 18 174 0.0 0.0 0.00 0.00 0.00 33 1014.8
20260502214814 18 175 0.0 0.0 0.00 0.00 0.00 34 1014.9
20260502213914 17 206 0.0 0.0 0.00 0.00 0.00 37 1015.0
20260502212638 17 219 0.0 0.0 0.00 0.00 0.00 37 1015.3
20260502211738 18 193 16.1 19.3 0.00 0.00 0.00 32 1015.6
20260502210506 19 149 3.2 8.0 0.00 0.00 0.00 31 1015.5
20260502205422 18 161 1.6 3.2 0.00 0.00 0.00 33 1015.4
20260502204326 18 191 0.0 3.2 0.00 0.00 0.00 32 1015.5
20260502203230 18 181 6.4 8.0 0.00 0.00 0.00 33 1015.4
20260502202402 18 268 3.2 8.0 0.00 0.00 0.00 32 1015.6
20260502201110 18 193 3.2 3.2 0.00 0.00 0.00 32 1015.6
20260502200014 18 182 4.8 11.3 0.00 0.00 0.00 33 1015.7
20260502195058 19 359 1.6 3.2 0.00 0.00 0.00 31 1015.5
20260502194002 18 182 4.8 8.0 0.00 0.00 0.00 31 1015.7
20260502192954 19 173 9.7 11.3 0.00 0.00 0.00 31 1015.7
20260502191806 20 204 8.0 11.3 0.00 0.00 0.00 31 1015.6
20260502190710 20 162 8.0 11.3 0.00 0.00 0.00 31 1015.9
20260502185826 20 119 0.0 3.2 0.00 0.00 0.00 29 1015.7
20260502184549 20 157 0.0 3.2 0.00 0.00 0.00 30 1015.9
20260502183438 20 91 0.0 3.2 0.00 0.00 0.00 33 1016.0
20260502182434 19 169 0.0 3.2 0.00 0.00 0.00 34 1016.0
20260502181354 18 186 0.0 0.0 0.00 0.00 0.00 35 1016.1
20260502180150 18 145 0.0 3.2 0.00 0.00 0.00 35 1016.2
20260502163701 15 219 0.0 0.0 0.00 0.00 0.00 43 1016.4
20260502162622 15 220 0.0 0.0 0.00 0.00 0.00 43 1016.2
20260502161613 15 179 0.0 0.0 0.00 0.00 0.00 42 1016.1
20260502160518 15 232 0.0 0.0 0.00 0.00 0.00 43 1016.4
20260502152309 15 198 0.0 0.0 0.00 0.00 0.00 42 1016.2
20260502151426 13 211 0.0 0.0 0.00 0.00 0.00 44 1016.1
20260502150237 13 191 0.0 0.0 0.00 0.00 0.00 47 1016.4
20260502123558 8 208 0.0 0.0 0.00 0.00 0.00 45 1015.4
20260502122517 8 199 0.0 0.0 0.00 0.00 0.00 47 1015.3
20260502121453 8 198 0.0 0.0 0.00 0.00 0.00 46 1015.6
20260502120554 8 197 0.0 0.0 0.00 0.00 0.00 49 1015.4
20260502115406 8 189 0.0 0.0 0.00 0.00 0.00 47 1015.4
20260502114309 8 196 0.0 0.0 0.00 0.00 0.00 46 1015.3
20260502113306 9 195 0.0 0.0 0.00 0.00 0.00 43 1015.4
20260502112205 9 198 0.0 0.0 0.00 0.00 0.00 43 1015.3
20260502111109 9 214 0.0 0.0 0.00 0.00 0.00 41 1015.3
20260502110241 10 201 0.0 0.0 0.00 0.00 0.00 40 1015.5
20260502105006 10 185 0.0 3.2 0.00 0.00 0.00 37 1015.6
20260502103957 11 177 4.8 8.0 0.00 0.00 0.00 36 1015.3
20260502103042 10 174 1.6 3.2 0.00 0.00 0.00 36 1015.5
20260502101805 11 143 0.0 3.2 0.00 0.00 0.00 35 1015.5
20260502100654 11 171 0.0 0.0 0.00 0.00 0.00 34 1015.2
20260502091421 11 169 1.6 3.2 0.00 0.00 0.00 29 1015.4
20260502090446 11 190 0.0 0.0 0.00 0.00 0.00 30 1015.8
20260502070807 12 161 1.6 3.2 0.00 0.00 0.00 29 1016.3